GW0360 Weather Reports


Display with metric or nautical units.
time (UTC)temp
F
wind
direction
speed
MPH
gust
MPH
rain 1hr
in
rain 24hr
in
rain mn
in
humidity
%
barometer
mb
20260904045043 84 172 1.0 5.0 0.00 0.00 0.00 63 1012.3
20260904044558 84 183 0.0 5.0 0.00 0.00 0.00 63 1012.4
20260904044048 84 0 0.0 5.0 0.00 0.00 0.00 63 1012.4
20260904043544 84 245 0.0 5.0 0.00 0.00 0.00 62 1012.4
20260904043124 84 0 0.0 6.0 0.00 0.00 0.00 62 1012.3
20260904042545 84 231 1.0 6.0 0.00 0.00 0.00 61 1012.4
20260904042046 84 0 0.0 4.0 0.00 0.00 0.00 61 1012.4
20260904041606 85 0 0.0 9.0 0.00 0.00 0.00 61 1012.3
20260904041045 85 0 2.0 9.0 0.00 0.00 0.00 60 1012.3
20260904040544 85 228 0.0 6.0 0.00 0.00 0.00 60 1012.3
20260904040107 85 228 1.0 6.0 0.00 0.00 0.00 59 1012.3
20260904035545 86 0 1.0 6.0 0.00 0.00 0.00 59 1012.3
20260904035044 86 0 1.0 6.0 0.00 0.00 0.00 58 1012.2
20260904034607 86 267 1.0 5.0 0.00 0.00 0.00 58 1012.2
20260904034044 86 234 1.0 5.0 0.00 0.00 0.00 58 1012.3
20260904033545 86 209 0.0 7.0 0.00 0.00 0.00 57 1012.3
20260904033103 86 0 1.0 7.0 0.00 0.00 0.00 57 1012.2
20260904032544 86 138 1.0 4.0 0.00 0.00 0.00 57 1012.2
20260904032044 86 196 0.0 6.0 0.00 0.00 0.00 57 1012.2
20260904031602 86 0 1.0 6.0 0.00 0.00 0.00 57 1012.1
20260904031044 86 192 1.0 6.0 0.00 0.00 0.00 57 1012.1
20260904030547 86 0 0.0 4.0 0.00 0.00 0.00 57 1011.9
20260904030106 86 0 1.0 6.0 0.00 0.00 0.00 57 1011.8
20260904025544 86 0 1.0 6.0 0.00 0.00 0.00 58 1011.8
20260904025044 86 160 1.0 4.0 0.00 0.00 0.00 58 1011.8
20260904024605 86 0 0.0 4.0 0.00 0.00 0.00 58 1011.7
20260904024044 86 163 0.0 6.0 0.00 0.00 0.00 58 1011.7
20260904023543 86 0 1.0 6.0 0.00 0.00 0.00 58 1011.5
20260904023102 86 0 0.0 4.0 0.00 0.00 0.00 58 1011.5
20260904022544 86 164 1.0 4.0 0.00 0.00 0.00 58 1011.5
20260904022045 86 196 0.0 4.0 0.00 0.00 0.00 59 1011.4
20260904021602 86 0 0.0 4.0 0.00 0.00 0.00 59 1011.3
20260904021044 86 161 0.0 3.0 0.00 0.00 0.00 59 1011.3
20260904020544 86 219 1.0 3.0 0.00 0.00 0.00 59 1011.3
20260904015544 87 206 0.0 2.0 0.00 0.00 0.00 59 1011.1
20260904015044 87 0 0.0 2.0 0.00 0.00 0.00 59 1011.2
20260904014643 87 201 0.0 2.0 0.00 0.00 0.00 59 1011.1
20260904014056 87 221 0.0 2.0 0.00 0.00 0.00 59 1010.9
20260904013547 87 0 0.0 2.0 0.00 0.00 0.00 59 1010.9
20260904013103 87 0 0.0 1.0 0.00 0.00 0.00 58 1010.7
20260904012544 87 0 0.0 1.0 0.00 0.00 0.00 57 1010.6
20260904012044 88 0 0.0 1.0 0.00 0.00 0.00 57 1010.6
20260904011602 88 176 0.0 1.0 0.00 0.00 0.00 57 1010.6
20260904011047 88 0 0.0 3.0 0.00 0.00 0.00 56 1010.6
20260904010544 89 0 0.0 3.0 0.00 0.00 0.00 56 1010.4
20260904010100 89 0 0.0 3.0 0.00 0.00 0.00 55 1010.4
20260904005543 89 0 0.0 3.0 0.00 0.00 0.00 55 1010.3
20260904005043 89 0 0.0 3.0 0.00 0.00 0.00 54 1010.4
20260904004603 90 253 0.0 3.0 0.00 0.00 0.00 54 1010.3
20260904004044 90 0 0.0 2.0 0.00 0.00 0.00 53 1010.3
20260904003544 90 0 0.0 2.0 0.00 0.00 0.00 53 1010.4
20260904003110 90 0 0.0 3.0 0.00 0.00 0.00 52 1010.3
20260904002545 91 0 0.0 3.0 0.00 0.00 0.00 52 1010.4
20260904002044 91 0 0.0 5.0 0.00 0.00 0.00 52 1010.4
20260904001602 92 0 0.0 5.0 0.00 0.00 0.00 51 1010.4
20260904001044 92 0 1.0 5.0 0.00 0.00 0.00 50 1010.5
20260904000544 93 196 1.0 5.0 0.00 0.00 0.00 48 1010.5
20260904000142 93 0 1.0 5.0 0.00 0.00 0.00 48 1010.4
20260903235543 93 233 1.0 5.0 0.00 0.00 0.00 47 1010.4
20260903235044 93 144 1.0 5.0 0.00 0.00 0.00 47 1010.4
20260903234604 94 164 0.0 5.0 0.00 0.00 0.00 47 1010.4
20260903234044 94 125 0.0 3.0 0.00 0.00 0.00 47 1010.5
20260903233543 94 0 0.0 4.0 0.00 0.00 0.00 47 1010.5
20260903233103 94 139 1.0 6.0 0.00 0.00 0.00 46 1010.5
20260903232545 95 169 2.0 9.0 0.00 0.00 0.00 45 1010.4
20260903232048 95 0 0.0 9.0 0.00 0.00 0.00 46 1010.5
20260903231618 95 148 2.0 9.0 0.00 0.00 0.00 45 1010.3
20260903231044 95 211 2.0 6.0 0.00 0.00 0.00 45 1010.3
20260903230544 95 180 1.0 5.0 0.00 0.00 0.00 46 1010.3
20260903230108 95 214 1.0 6.0 0.00 0.00 0.00 46 1010.3
20260903225544 95 157 2.0 9.0 0.00 0.00 0.00 45 1010.4
20260903225045 96 188 2.0 10.0 0.00 0.00 0.00 44 1010.3
20260903224603 96 217 3.0 11.0 0.00 0.00 0.00 44 1010.3
20260903224044 96 223 3.0 11.0 0.00 0.00 0.00 44 1010.2
20260903223544 96 211 2.0 10.0 0.00 0.00 0.00 44 1010.2
20260903223108 97 220 3.0 10.0 0.00 0.00 0.00 44 1010.2
20260903222548 97 263 3.0 10.0 0.00 0.00 0.00 44 1010.3
20260903222044 96 229 2.0 10.0 0.00 0.00 0.00 44 1010.2
20260903221559 96 240 1.0 11.0 0.00 0.00 0.00 44 1010.3
20260903221043 96 178 3.0 14.0 0.00 0.00 0.00 44 1010.3
20260903220545 97 200 2.0 16.0 0.00 0.00 0.00 44 1010.4
20260903220114 97 207 3.0 16.0 0.00 0.00 0.00 44 1010.3
20260903215545 97 180 2.0 8.0 0.00 0.00 0.00 45 1010.4
20260903215046 96 129 2.0 8.0 0.00 0.00 0.00 44 1010.4
20260903214605 97 155 2.0 8.0 0.00 0.00 0.00 43 1010.3
20260903214045 97 202 3.0 9.0 0.00 0.00 0.00 44 1010.6
20260903213544 97 221 2.0 12.0 0.00 0.00 0.00 44 1010.5
20260903213105 97 193 3.0 12.0 0.00 0.00 0.00 43 1010.6
20260903212544 97 210 5.0 12.0 0.00 0.00 0.00 43 1010.7
20260903212045 97 225 3.0 12.0 0.00 0.00 0.00 43 1010.7
20260903211602 97 194 3.0 12.0 0.00 0.00 0.00 44 1010.7
20260903211044 97 182 2.0 11.0 0.00 0.00 0.00 44 1010.7
20260903210544 97 128 1.0 11.0 0.00 0.00 0.00 45 1010.7
20260903210103 97 206 3.0 11.0 0.00 0.00 0.00 44 1010.8
20260903205544 96 161 3.0 8.0 0.00 0.00 0.00 45 1010.8
20260903205044 97 229 3.0 12.0 0.00 0.00 0.00 45 1010.9
20260903204613 97 170 4.0 12.0 0.00 0.00 0.00 45 1011.0
20260903204044 97 0 4.0 15.0 0.00 0.00 0.00 46 1011.1
20260903203548 97 232 4.0 15.0 0.00 0.00 0.00 45 1011.1
20260903203106 96 225 3.0 13.0 0.00 0.00 0.00 45 1011.2
20260903202544 97 229 5.0 13.0 0.00 0.00 0.00 46 1011.3
20260903202045 97 169 4.0 12.0 0.00 0.00 0.00 45 1011.3
20260903201604 97 177 4.0 15.0 0.00 0.00 0.00 46 1011.4
20260903201044 96 196 5.0 15.0 0.00 0.00 0.00 46 1011.4
20260903200546 96 278 6.0 15.0 0.00 0.00 0.00 45 1011.4
20260903200104 96 260 6.0 15.0 0.00 0.00 0.00 45 1011.5
20260903195543 96 274 3.0 12.0 0.00 0.00 0.00 47 1011.5
20260903195044 96 139 3.0 12.0 0.00 0.00 0.00 46 1011.6
20260903194602 96 194 5.0 11.0 0.00 0.00 0.00 47 1011.8
20260903194043 96 191 3.0 15.0 0.00 0.00 0.00 48 1011.8
20260903193547 96 221 2.0 15.0 0.00 0.00 0.00 49 1011.8
20260903193102 96 216 2.0 7.0 0.00 0.00 0.00 48 1011.9
20260903192544 96 218 2.0 15.0 0.00 0.00 0.00 48 1011.9
20260903192044 95 182 1.0 16.0 0.00 0.00 0.00 50 1012.0
20260903191606 96 151 5.0 16.0 0.00 0.00 0.00 48 1012.0
20260903191044 96 194 3.0 11.0 0.00 0.00 0.00 48 1012.1
20260903190543 96 131 2.0 10.0 0.00 0.00 0.00 48 1012.2
20260903190107 95 173 3.0 11.0 0.00 0.00 0.00 48 1012.2
20260903185543 96 254 3.0 11.0 0.00 0.00 0.00 49 1012.3
20260903185043 95 161 4.0 13.0 0.00 0.00 0.00 49 1012.3
20260903184600 95 128 5.0 13.0 0.00 0.00 0.00 49 1012.5
20260903184045 95 169 4.0 14.0 0.00 0.00 0.00 48 1012.5
20260903183544 94 209 2.0 14.0 0.00 0.00 0.00 49 1012.6
20260903183102 95 234 3.0 12.0 0.00 0.00 0.00 48 1012.6
20260903182544 95 271 3.0 12.0 0.00 0.00 0.00 48 1012.6
20260903182043 94 186 3.0 11.0 0.00 0.00 0.00 49 1012.7
20260903181604 95 173 3.0 10.0 0.00 0.00 0.00 49 1012.7
20260903181047 95 209 4.0 11.0 0.00 0.00 0.00 49 1012.8
20260903180544 94 211 5.0 12.0 0.00 0.00 0.00 48 1012.9
20260903180105 94 204 3.0 15.0 0.00 0.00 0.00 50 1012.9
20260903175544 94 210 2.0 15.0 0.00 0.00 0.00 51 1013.0
20260903175045 94 248 8.0 15.0 0.00 0.00 0.00 50 1013.0
20260903174601 94 214 3.0 14.0 0.00 0.00 0.00 50 1013.0
20260903174045 94 212 5.0 14.0 0.00 0.00 0.00 49 1013.1
20260903173544 94 37 4.0 11.0 0.00 0.00 0.00 51 1013.1
20260903173101 93 177 3.0 15.0 0.00 0.00 0.00 52 1013.2
20260903172545 92 227 6.0 15.0 0.00 0.00 0.00 52 1013.3
20260903172043 93 227 6.0 13.0 0.00 0.00 0.00 51 1013.4
20260903171611 92 215 5.0 13.0 0.00 0.00 0.00 52 1013.3
20260903171044 92 214 5.0 11.0 0.00 0.00 0.00 52 1013.6
20260903170544 92 225 3.0 15.0 0.00 0.00 0.00 52 1013.4
20260903170107 92 219 4.0 15.0 0.00 0.00 0.00 54 1013.5
20260903165543 91 282 6.0 14.0 0.00 0.00 0.00 54 1013.5
20260903165048 91 137 4.0 13.0 0.00 0.00 0.00 54 1013.5
20260903164601 91 232 3.0 13.0 0.00 0.00 0.00 56 1013.7
20260903164042 90 132 3.0 13.0 0.00 0.00 0.00 55 1013.6
20260903163544 91 89 2.0 12.0 0.00 0.00 0.00 55 1013.5
20260903163113 90 216 4.0 12.0 0.00 0.00 0.00 54 1013.6
20260903162544 90 189 3.0 12.0 0.00 0.00 0.00 56 1013.7
20260903162044 90 201 3.0 12.0 0.00 0.00 0.00 55 1013.6
20260903161612 90 224 5.0 13.0 0.00 0.00 0.00 54 1013.6
20260903161043 89 259 3.0 13.0 0.00 0.00 0.00 56 1013.6
20260903160546 89 200 5.0 14.0 0.00 0.00 0.00 56 1013.6
20260903160106 89 252 4.0 16.0 0.00 0.00 0.00 56 1013.7
20260903155545 89 228 7.0 16.0 0.00 0.00 0.00 56 1013.7
20260903155043 89 165 4.0 10.0 0.00 0.00 0.00 57 1013.7
20260903154600 88 206 3.0 10.0 0.00 0.00 0.00 59 1013.7
20260903154045 88 202 5.0 14.0 0.00 0.00 0.00 58 1013.8
20260903153544 88 0 4.0 14.0 0.00 0.00 0.00 60 1013.8
20260903153100 88 201 4.0 10.0 0.00 0.00 0.00 60 1013.7
20260903152543 87 280 2.0 12.0 0.00 0.00 0.00 61 1013.8
20260903152043 87 238 4.0 12.0 0.00 0.00 0.00 61 1013.9
20260903151558 87 213 2.0 7.0 0.00 0.00 0.00 62 1014.0
20260903151047 86 165 1.0 11.0 0.00 0.00 0.00 63 1014.1
20260903150544 85 236 4.0 11.0 0.00 0.00 0.00 63 1014.0
20260903150118 85 229 3.0 12.0 0.00 0.00 0.00 62 1014.0
20260903145543 85 217 5.0 12.0 0.00 0.00 0.00 63 1013.9
20260903145044 84 211 3.0 12.0 0.00 0.00 0.00 64 1013.8
20260903144603 84 47 3.0 9.0 0.00 0.00 0.00 64 1013.9
20260903144044 84 166 2.0 11.0 0.00 0.00 0.00 65 1013.8
20260903143543 84 179 4.0 12.0 0.00 0.00 0.00 65 1013.8
20260903143102 83 217 3.0 12.0 0.00 0.00 0.00 66 1013.8
20260903142543 83 209 3.0 12.0 0.00 0.00 0.00 67 1013.7
20260903142044 83 136 5.0 12.0 0.00 0.00 0.00 66 1013.8
20260903141605 83 271 3.0 13.0 0.00 0.00 0.00 67 1013.7
20260903141044 82 142 5.0 13.0 0.00 0.00 0.00 67 1013.7
20260903140544 82 208 4.0 13.0 0.00 0.00 0.00 68 1013.7
20260903140106 81 127 5.0 12.0 0.00 0.00 0.00 68 1013.7
20260903135543 81 199 4.0 10.0 0.00 0.00 0.00 69 1013.7
20260903135048 81 172 3.0 12.0 0.00 0.00 0.00 69 1013.7
20260903134559 80 150 4.0 12.0 0.00 0.00 0.00 69 1013.6
20260903134047 80 265 2.0 12.0 0.00 0.00 0.00 70 1013.6
20260903133540 80 188 3.0 10.0 0.00 0.00 0.00 70 1013.6
20260903133102 80 234 1.0 10.0 0.00 0.00 0.00 71 1013.6
20260903132542 79 183 3.0 12.0 0.00 0.00 0.00 70 1013.6
20260903132040 79 178 4.0 14.0 0.00 0.00 0.00 71 1013.6
20260903131605 79 169 4.0 14.0 0.00 0.00 0.00 72 1013.6
20260903131040 78 191 4.0 10.0 0.00 0.00 0.00 72 1013.7
20260903130545 78 193 2.0 10.0 0.00 0.00 0.00 72 1013.6
20260903130111 78 254 4.0 10.0 0.00 0.00 0.00 72 1013.6
20260903125544 78 172 4.0 9.0 0.00 0.00 0.00 72 1013.6
20260903125044 77 220 4.0 9.0 0.00 0.00 0.00 73 1013.5
20260903124605 77 250 2.0 9.0 0.00 0.00 0.00 73 1013.6
20260903124217 77 190 2.0 9.0 0.00 0.00 0.00 73 1013.4
20260903123543 77 234 3.0 9.0 0.00 0.00 0.00 73 1013.5
20260903123144 77 206 3.0 10.0 0.00 0.00 0.00 73 1013.4
20260903122545 77 190 2.0 10.0 0.00 0.00 0.00 73 1013.5
20260903122043 77 138 2.0 9.0 0.00 0.00 0.00 73 1013.4
20260903121604 77 232 3.0 8.0 0.00 0.00 0.00 73 1013.4
20260903121044 77 236 1.0 9.0 0.00 0.00 0.00 73 1013.4
20260903120548 77 170 3.0 9.0 0.00 0.00 0.00 73 1013.4
20260903115541 77 164 1.0 6.0 0.00 0.00 0.00 73 1013.3
20260903115046 77 183 1.0 8.0 0.00 0.00 0.00 73 1013.1
20260903114619 77 173 3.0 8.0 0.00 0.00 0.00 72 1013.1
20260903114044 77 0 3.0 9.0 0.00 0.00 0.00 72 1013.1
20260903113544 77 215 2.0 9.0 0.00 0.00 0.00 72 1013.0
20260903113106 77 217 2.0 9.0 0.00 0.00 0.00 72 1013.0
20260903112544 77 196 2.0 8.0 0.00 0.00 0.00 72 1013.0
20260903112044 77 202 2.0 8.0 0.00 0.00 0.00 72 1013.0
20260903111619 77 0 2.0 9.0 0.00 0.00 0.00 71 1012.9
20260903111044 77 235 3.0 9.0 0.00 0.00 0.00 71 1013.0
20260903110544 77 230 1.0 7.0 0.00 0.00 0.00 71 1012.9
20260903110115 78 0 2.0 6.0 0.00 0.00 0.00 71 1012.9
20260903105546 78 214 2.0 6.0 0.00 0.00 0.00 71 1012.8
20260903105044 78 265 2.0 7.0 0.00 0.00 0.00 70 1012.9
20260903104613 78 202 2.0 7.0 0.00 0.00 0.00 70 1012.8
20260903104043 77 186 3.0 7.0 0.00 0.00 0.00 70 1012.8
20260903103543 77 196 1.0 6.0 0.00 0.00 0.00 70 1012.8
20260903103110 78 179 1.0 6.0 0.00 0.00 0.00 70 1012.8
20260903102539 77 216 1.0 7.0 0.00 0.00 0.00 70 1012.8
20260903102043 78 230 2.0 8.0 0.00 0.00 0.00 70 1012.7
20260903101600 78 232 1.0 8.0 0.00 0.00 0.00 70 1012.7
20260903101044 78 169 1.0 8.0 0.00 0.00 0.00 70 1012.7
20260903100544 78 217 1.0 7.0 0.00 0.00 0.00 69 1012.8
20260903095543 78 148 2.0 8.0 0.00 0.00 0.00 69 1012.8
20260903095043 78 196 2.0 8.0 0.00 0.00 0.00 69 1012.7
20260903094603 78 212 3.0 8.0 0.00 0.00 0.00 69 1012.7
20260903094043 78 212 1.0 7.0 0.00 0.00 0.00 69 1012.8
20260903093545 78 0 2.0 7.0 0.00 0.00 0.00 69 1012.7
20260903093129 78 192 2.0 7.0 0.00 0.00 0.00 69 1012.7
20260903092543 78 153 2.0 5.0 0.00 0.00 0.00 69 1012.7
20260903092041 78 210 1.0 6.0 0.00 0.00 0.00 69 1012.7
20260903091604 78 0 1.0 6.0 0.00 0.00 0.00 69 1012.8
20260903091044 78 240 3.0 6.0 0.00 0.00 0.00 69 1012.8
20260903090544 78 221 0.0 6.0 0.00 0.00 0.00 69 1012.8
20260903085543 78 222 0.0 4.0 0.00 0.00 0.00 69 1012.8
20260903085043 78 214 0.0 4.0 0.00 0.00 0.00 68 1012.9
20260903084603 78 173 0.0 3.0 0.00 0.00 0.00 69 1012.7
20260903084044 78 0 0.0 3.0 0.00 0.00 0.00 69 1012.6
20260903083548 78 213 0.0 4.0 0.00 0.00 0.00 69 1012.5
20260903083101 79 0 0.0 4.0 0.00 0.00 0.00 68 1012.7
20260903082540 79 212 1.0 4.0 0.00 0.00 0.00 68 1012.5
20260903082041 79 206 0.0 6.0 0.00 0.00 0.00 68 1012.6
20260903081602 79 221 0.0 6.0 0.00 0.00 0.00 67 1012.5
20260903081043 79 161 1.0 6.0 0.00 0.00 0.00 67 1012.5
20260903080544 79 223 0.0 5.0 0.00 0.00 0.00 67 1012.5
20260903080104 79 163 0.0 5.0 0.00 0.00 0.00 67 1012.4
20260903075546 79 147 1.0 4.0 0.00 0.00 0.00 66 1012.4
20260903075048 79 174 1.0 4.0 0.00 0.00 0.00 66 1012.5
20260903074600 79 227 1.0 4.0 0.00 0.00 0.00 66 1012.4
20260903074043 80 223 0.0 7.0 0.00 0.00 0.00 66 1012.4
20260903073543 80 0 1.0 7.0 0.00 0.00 0.00 65 1012.5
20260903073106 80 220 2.0 7.0 0.00 0.00 0.00 65 1012.5
20260903072540 80 207 1.0 5.0 0.00 0.00 0.00 65 1012.6
20260903072043 80 216 2.0 5.0 0.00 0.00 0.00 65 1012.5
20260903071632 80 0 1.0 4.0 0.00 0.00 0.00 65 1012.5
20260903071155 80 0 0.0 4.0 0.00 0.00 0.00 65 1012.6
20260903070543 80 0 1.0 5.0 0.00 0.00 0.00 64 1012.6
20260903070108 80 0 1.0 5.0 0.00 0.00 0.00 64 1012.7
20260903065547 81 168 2.0 5.0 0.00 0.00 0.00 64 1012.7
20260903065040 81 236 2.0 8.0 0.00 0.00 0.00 64 1012.7
20260903064607 81 212 3.0 8.0 0.00 0.00 0.00 64 1012.7
20260903064043 80 239 1.0 6.0 0.00 0.00 0.00 64 1012.7
20260903063540 81 199 0.0 6.0 0.00 0.00 0.00 63 1012.7
20260903063106 81 202 0.0 6.0 0.00 0.00 0.00 63 1012.7
20260903062540 81 231 1.0 6.0 0.00 0.00 0.00 63 1012.7
20260903062040 81 223 0.0 6.0 0.00 0.00 0.00 63 1012.7
20260903061608 81 0 1.0 6.0 0.00 0.00 0.00 63 1012.8
20260903061039 81 210 1.0 5.0 0.00 0.00 0.00 62 1012.8
20260903060543 81 203 1.0 5.0 0.00 0.00 0.00 62 1012.8
20260903060104 81 179 1.0 5.0 0.00 0.00 0.00 62 1012.7
20260903055544 81 0 0.0 5.0 0.00 0.00 0.00 62 1012.8
20260903055047 81 241 1.0 3.0 0.00 0.00 0.00 61 1012.7
20260903054559 82 0 0.0 3.0 0.00 0.00 0.00 61 1012.7
20260903054042 82 240 0.0 3.0 0.00 0.00 0.00 61 1012.7
20260903053541 82 0 0.0 4.0 0.00 0.00 0.00 61 1012.7
20260903053106 82 0 0.0 5.0 0.00 0.00 0.00 60 1012.6
20260903052541 82 211 1.0 5.0 0.00 0.00 0.00 60 1012.5
20260903052041 82 198 0.0 4.0 0.00 0.00 0.00 60 1012.7
20260903051601 82 0 0.0 6.0 0.00 0.00 0.00 60 1012.7
20260903051041 83 0 1.0 7.0 0.00 0.00 0.00 60 1012.6
20260903050543 83 0 0.0 7.0 0.00 0.00 0.00 59 1012.7
20260903050115 83 161 1.0 7.0 0.00 0.00 0.00 59 1012.7
20260903045544 83 0 0.0 3.0 0.00 0.00 0.00 59 1012.7